RH
60 59 79 81 78 76 77 75 75 76 74 76 74 78 77 80 80 81 80 80 80 78 75 73 75 75 70 72 77 78 78 80 81 82 85 82 79 78 72 77 71 54 69
53 56 81 82 75 75 77 75 76 79 77 78 77 77 79 80 80 79 79 80 81 75 74 74 75 75 72 72 76 79 81 82 83 85 87 88 85 80 72 80 74 65 72
57 58 69 80 75 75 77 77 77 76 77 81 79 78 79 79 80 78 78 78 77 76 74 75 76 75 73 73 75 80 81 81 83 83 79 51 59 77 77 82 81 78 73
56 58 59 84 81 73 78 77 78 78 75 76 80 77 77 78 79 79 78 78 77 76 77 78 79 81 82 80 78 79 80 81 84 83 44 43 47 72 74 78 79 76 72
58 60 58 85 81 72 78 78 82 77 74 76 82 89 80 80 78 81 84 81 82 82 83 84 82 82 82 83 77 80 82 82 81 58 48 50 50 62 73 74 71 70 71
58 59 68 84 84 78 77 76 78 79 74 79 86 88 81 80 82 89 90 92 92 88 85 82 81 82 85 85 82 84 83 82 76 47 51 59 59 73 72 74 73 71 70
60 63 62 85 83 78 77 77 80 79 76 77 86 91 84 82 83 83 86 86 87 88 87 83 83 84 84 85 84 86 84 84 43 41 44 54 66 75 75 72 71 71 73
68 65 63 83 84 81 80 81 84 83 81 82 83 90 90 88 85 82 85 86 85 84 84 84 83 85 85 86 87 86 85 77 54 54 60 62 79 75 74 70 70 71 72
74 67 66 67 73 87 86 88 86 85 84 84 88 90 92 91 84 82 86 87 86 85 85 85 85 86 87 87 88 87 87 83 55 56 55 64 85 73 73 73 73 71 71
77 73 68 70 64 62 78 90 90 90 90 90 92 93 95 90 87 87 92 88 88 89 87 85 86 87 87 86 84 85 85 79 54 54 57 62 80 77 79 79 77 75 74
86 79 81 77 70 75 79 88 89 91 90 89 86 88 83 71 71 70 91 87 91 90 87 86 87 87 86 83 82 82 75 63 61 62 63 83 78 76 77 76 78 80 80
95 89 89 88 86 85 85 75 72 70 66 64 65 64 62 63 68 71 89 92 90 90 89 88 84 77 72 58 58 69 54 58 66 64 71 84 79 79 79 80 80 79 79
90 91 86 85 82 80 79 70 62 60 58 57 57 57 56 61 64 64 70 77 84 84 76 71 66 57 55 52 51 51 53 59 65 73 80 85 80 79 78 78 78 78 78
90 90 85 82 80 74 74 64 57 59 58 55 54 53 55 64 56 56 55 54 56 61 73 66 55 54 49 47 47 49 55 61 69 76 89 86 82 78 78 78 77 77 76
90 87 92 86 82 73 69 62 58 57 55 53 52 50 62 58 54 54 50 62 72 57 58 52 52 54 51 54 53 51 57 60 67 72 80 84 82 77 77 77 77 78 75
84 88 83 88 88 78 72 64 56 54 53 55 52 51 50 53 50 50 54 60 64 88 61 63 65 62 73 67 69 76 80 82 78 71 74 77 79 76 73 74 73 71 72
77 81 81 82 82 82 75 68 64 54 53 56 51 48 50 54 52 59 66 72 89 72 88 84 83 78 80 79 75 69 71 82 87 81 75 70 76 76 70 69 68 67 67
78 79 75 72 76 76 70 71 67 64 60 61 58 52 56 56 56 68 72 84 87 89 82 80 89 81 80 69 58 76 53 37 40 46 50 52 57 62 70 65 63 62 62
75 75 74 70 72 70 68 75 70 65 66 59 52 50 48 55 57 57 67 76 78 86 85 76 59 60 49 35 29 29 26 23 22 24 28 35 44 49 50 64 65 64 61
70 71 73 76 72 71 74 75 73 67 63 56 50 51 50 50 51 55 57 60 58 63 64 70 57 43 34 28 20 25 27 27 24 21 20 20 25 32 36 42 46 52 62
65 65 70 80 75 71 79 70 60 62 56 53 52 49 48 51 50 49 53 52 50 47 42 37 37 38 32 31 31 31 28 24 24 23 23 23 25 23 21 21 24 37 46
60 60 61 69 74 69 67 65 63 58 57 56 59 50 50 50 53 48 51 50 43 43 39 38 38 39 35 30 32 29 29 27 27 24 24 23 24 23 23 21 20 24 34
54 57 55 64 74 77 74 74 70 61 58 58 56 56 57 49 48 47 48 47 41 37 40 38 38 42 38 39 30 31 29 26 29 28 27 23 23 25 25 25 25 26 27
50 51 54 63 74 78 79 80 78 75 63 60 57 55 56 48 50 44 48 42 39 37 36 34 31 31 34 37 39 32 40 27 27 30 29 28 24 21 24 24 25 30 34
52 52 54 59 68 78 84 87 90 88 86 83 75 50 49 43 43 41 40 42 41 39 36 34 34 34 29 34 34 38 35 32 27 26 30 33 28 25 24 25 26 32 35
58 56 60 65 68 76 83 88 92 95 94 81 84 64 56 49 40 40 41 43 42 42 40 39 37 36 35 35 34 33 34 30 31 31 30 34 30 28 26 24 26 28 33
Wind_Speed
9 10 10 11 12 11 10 12 13 13 11 12 14 13 14 14 15 15 15 15 17 17 19 19 19 19 21 20 19 20 18 17 20 18 16 17 17 19 17 15 19 19 21
12 9 10 11 12 11 10 12 13 13 13 13 13 14 14 15 16 16 16 16 18 20 19 20 21 21 22 20 19 19 19 19 19 16 15 14 14 16 17 14 17 18 19
12 11 11 12 12 11 11 10 11 12 11 12 14 15 15 15 17 17 16 16 19 20 20 21 22 22 21 20 20 20 19 19 15 12 10 13 15 16 18 17 16 19 21
13 11 14 14 12 13 12 12 12 13 13 11 13 14 15 16 17 18 17 17 18 19 20 21 21 20 19 19 19 19 18 16 10 10 12 14 14 17 18 19 19 20 20
13 12 13 14 14 15 13 13 12 13 14 14 11 10 13 15 17 19 17 15 16 18 20 21 21 20 18 18 18 18 15 12 6 7 13 12 13 16 20 20 19 18 18
12 13 14 14 15 15 13 13 13 12 16 17 17 15 15 19 21 22 19 17 12 17 20 21 20 19 19 19 19 17 14 8 8 12 11 10 11 15 18 19 19 19 19
11 10 11 14 16 14 14 13 14 14 17 19 17 15 17 20 20 20 21 21 19 18 20 20 20 20 19 19 18 16 11 2 12 12 11 12 12 17 18 19 18 18 18
9 10 11 12 15 14 12 13 14 16 18 21 22 19 18 19 17 17 18 20 22 21 21 22 21 20 19 19 18 15 8 6 10 11 11 9 14 17 17 18 18 17 17
6 10 11 14 15 12 11 11 13 15 17 20 22 21 20 19 16 15 16 20 22 21 21 22 22 21 21 20 18 15 10 9 11 9 10 8 12 17 18 17 17 17 16
5 7 11 14 15 14 13 16 16 17 17 17 14 15 18 14 14 12 11 20 21 23 22 22 21 21 21 19 18 13 10 8 10 9 8 9 15 17 17 17 17 16 16
5 5 5 9 12 13 14 15 20 20 20 20 17 15 11 11 13 12 7 18 21 22 23 23 21 20 20 18 14 10 10 8 9 7 7 13 17 21 22 22 22 22 21
8 5 1 8 11 12 10 15 14 13 11 11 12 12 10 10 9 12 10 16 19 21 23 23 16 16 13 10 9 7 8 11 8 9 8 17 23 26 26 26 25 24 24
7 3 1 4 9 13 10 8 6 6 7 8 11 9 10 7 8 6 5 6 8 13 9 11 8 7 10 8 7 9 10 10 8 7 11 16 22 24 25 25 24 24 24
9 7 4 2 6 11 8 7 8 6 7 7 8 11 8 6 6 8 5 6 7 6 9 7 6 10 12 11 11 12 11 10 7 7 10 18 22 24 25 25 23 25 24
12 10 8 3 6 7 9 7 6 7 7 7 8 8 6 7 9 8 8 5 5 5 6 7 8 8 11 12 11 11 12 12 12 7 6 20 21 24 24 23 22 22 23
14 11 10 7 4 3 10 8 6 5 8 5 6 7 9 8 8 8 8 7 7 5 8 7 7 9 9 10 13 11 11 10 11 12 9 11 21 22 23 21 21 21 22
16 13 11 10 8 5 6 7 4 5 6 5 5 7 8 6 8 8 7 7 4 8 9 8 9 9 10 9 13 10 7 9 8 11 9 9 12 21 21 19 19 21 22
13 14 12 10 9 9 7 6 5 5 4 5 5 4 5 6 7 7 6 7 7 7 6 7 6 8 9 8 10 8 7 8 9 11 9 8 7 10 15 18 18 19 20
11 12 10 10 11 10 9 7 6 6 5 3 5 4 7 6 7 8 7 8 9 7 7 7 6 8 9 10 9 9 7 8 10 9 11 11 11 10 9 16 19 19 18
10 9 9 8 10 10 7 7 5 4 4 3 4 4 7 6 7 8 8 10 10 10 9 8 9 8 9 11 12 11 9 8 8 8 10 9 10 11 9 8 9 12 17
11 10 11 10 8 8 8 6 4 5 4 4 2 6 6 5 8 7 7 10 9 10 11 13 11 13 11 13 10 11 9 9 9 7 7 8 9 8 9 8 6 6 9
10 10 9 9 8 5 4 3 3 4 3 4 3 4 5 6 7 7 9 9 12 10 12 13 15 12 11 9 6 8 6 4 6 6 6 6 8 6 7 8 8 8 6
6 9 8 9 9 6 6 6 5 5 5 4 3 3 3 6 7 7 8 9 12 11 11 13 13 13 10 6 11 3 6 5 8 3 5 4 6 5 6 6 7 7 7
5 5 6 9 10 8 7 6 6 1 3 2 3 4 4 6 5 6 9 10 13 10 13 12 12 10 10 11 5 1 3 9 5 7 4 4 4 5 5 5 6 6 7
8 3 3 6 8 9 8 7 5 7 5 5 5 2 4 5 6 9 11 11 11 9 11 12 12 9 9 8 5 5 5 5 4 5 8 7 4 3 3 4 5 5 6
12 9 6 7 8 8 7 7 8 8 6 5 4 4 4 1 4 6 9 10 10 10 12 10 10 10 8 8 5 5 6 4 7 4 6 11 8 6 4 4 4 5 4
Wind_Direction
174 164 183 181 180 177 181 171 176 164 176 182 173 168 159 157 154 151 150 149 142 138 137 129 126 121 118 115 109 107 103 98 101 98 94 101 107 101 101 107 108 97 89
149 171 181 181 175 176 181 176 182 167 172 179 173 167 164 160 156 154 154 153 149 143 135 133 128 124 117 116 113 109 106 104 100 98 99 90 93 100 94 79 100 102 94
165 168 181 185 177 179 178 181 177 173 170 181 171 165 166 164 158 154 153 154 148 143 139 132 128 120 117 116 115 114 112 109 107 120 136 109 104 103 99 94 107 102 96
163 172 179 178 191 181 186 182 188 176 175 179 166 158 165 165 158 150 145 148 144 139 132 126 122 117 117 114 113 115 113 109 119 157 118 116 111 113 106 103 105 100 93
170 177 177 179 191 183 181 181 185 177 171 152 131 165 162 150 140 129 121 132 139 132 125 117 118 118 119 112 114 110 109 110 139 137 109 119 120 119 109 105 101 93 91
175 180 166 191 199 184 181 181 174 170 164 151 153 167 147 133 127 125 124 116 123 129 118 116 118 118 112 110 114 112 110 128 164 114 111 111 118 117 110 102 101 103 97
179 181 186 197 191 185 183 177 173 167 162 159 148 148 137 123 123 132 136 141 142 133 124 119 118 107 105 112 110 105 104 130 119 118 116 103 112 119 117 107 106 106 103
189 187 191 197 181 175 177 172 172 161 150 148 148 150 136 120 124 129 128 129 131 132 127 124 112 112 108 104 99 93 86 113 114 111 114 101 119 115 114 110 108 107 104
189 188 188 190 181 171 165 154 149 158 151 150 150 144 134 135 136 123 125 124 125 122 118 113 109 107 104 99 92 85 67 55 106 106 112 116 110 110 108 105 108 103 100
178 186 190 188 181 179 158 130 117 116 119 126 120 124 130 126 120 115 135 130 123 119 115 110 107 107 104 96 89 84 90 76 99 95 95 98 113 109 105 103 102 96 96
168 160 190 176 171 163 143 120 109 106 107 106 101 100 113 119 122 122 82 122 122 118 116 111 112 107 97 88 83 83 90 84 83 93 101 98 107 111 103 98 95 94 91
174 161 179 145 137 125 122 132 127 130 127 126 133 126 127 119 107 115 92 100 109 113 114 110 113 115 122 113 101 94 94 92 70 92 102 115 105 102 97 91 89 89 87
159 136 105 113 138 128 131 130 140 138 133 132 135 130 121 109 116 94 91 81 99 101 101 108 123 113 112 105 101 93 90 84 73 60 89 104 107 103 98 93 88 83 80
169 157 133 34 127 136 129 137 143 143 133 139 136 132 134 115 108 128 88 95 105 114 118 118 105 104 98 91 98 89 77 74 64 55 52 89 94 96 96 91 88 83 79
177 165 163 146 126 134 125 122 143 142 136 135 135 134 119 137 141 126 123 84 50 102 108 111 111 103 94 86 74 81 74 65 59 57 39 70 82 89 88 90 93 92 89
177 169 157 161 120 123 137 128 130 135 124 121 138 142 143 138 142 134 128 123 105 39 111 114 111 105 85 88 83 73 70 61 57 54 45 55 69 78 85 86 89 88 86
188 166 166 154 146 140 116 114 115 128 125 120 126 134 127 117 125 129 125 118 87 112 80 90 93 92 93 81 80 65 60 72 54 58 45 55 55 61 74 82 87 87 86
187 177 163 159 144 143 129 124 122 114 110 117 119 115 124 126 133 134 132 129 131 113 115 113 108 107 93 94 100 90 90 85 79 75 67 56 61 79 63 68 77 84 87
197 179 163 150 149 134 120 112 108 114 119 121 125 143 147 136 147 138 140 143 140 116 112 113 110 127 115 110 97 83 80 85 83 84 81 78 73 75 80 71 66 66 74
184 180 152 155 149 137 130 119 111 107 101 138 131 138 148 152 146 138 140 142 144 142 139 144 143 125 122 118 108 97 87 82 81 81 82 78 81 86 85 74 79 68 66
197 173 164 155 166 150 147 142 144 151 141 123 129 137 136 139 144 148 145 144 145 146 151 149 140 131 128 130 115 96 87 82 82 82 87 90 87 85 88 88 89 87 78
205 190 168 156 157 170 158 96 102 137 118 115 121 122 136 145 142 155 151 157 156 147 151 156 150 140 142 164 132 116 135 116 83 79 88 92 92 96 90 82 87 90 82
219 205 180 147 137 112 85 85 81 73 81 107 136 127 163 150 164 156 163 158 159 162 162 163 163 153 154 167 171 124 153 153 139 122 96 99 102 101 99 90 84 87 94
261 229 182 147 133 121 114 106 135 68 134 42 125 152 145 149 155 172 166 164 167 167 169 172 169 171 160 152 138 81 42 124 162 156 173 133 120 102 105 102 95 95 98
357 323 173 120 119 123 118 127 105 88 78 63 57 62 114 149 157 167 167 165 162 164 169 171 175 173 173 157 154 146 119 113 127 149 158 164 152 126 109 112 113 110 103
16 29 46 86 91 103 106 104 108 110 111 114 111 92 350 93 166 164 155 159 158 162 166 165 169 168 164 171 156 155 162 163 164 148 146 160 160 160 147 144 138 128 120